Regional Weather Roundup
Issued by NWS

Home | Current Version | Previous Version | Graphics & Text | Print | Product List | Glossary On
Versions: 1 2 3 4 5 6 7 8 9 10 11 12 13 14 15 16 17 18 19 20 21 22 23 24 25 26 27 28 29 30 31 32 33 34 35 36 37 38 39 40 41 42 43 44 45 46 47 48 49 50
000
ASUS45 KTFX 271504
RWRMT
MONTANA HOURLY WEATHER ROUNDUP
NATIONAL WEATHER SERVICE GREAT FALLS MT
804 AM MST TUE JAN 27 2015

NOTE: "FAIR" INDICATES FEW OR NO CLOUDS BELOW 12000 FEET WITH NO
SIGNIFICANT WEATHER AND/OR OBSTRUCTIONS TO VISIBILITY.

* THESE STATIONS ARE NOT UNDER NWS QUALITY CONTROL. THEY DO NOT
   REPORT WEATHER SUCH AS PRECIPITATION OR FOG.

MTZ001>007-043-271600-
WEST OF THE DIVIDE
CITY           SKY/WX    TMP DP  RH WIND       PRES   REMARKS
KALISPELL      FOG       18  16  92 CALM      29.99S VSB M1/4
MISSOULA       FOG       21  19  92 CALM      30.06S VSB 1
BUTTE          PTSUNNY   25  21  85 CALM      30.06R
MULLAN PASS    PTSUNNY   43  27  53 SW7       30.01S
* ANACONDA     PTCLDY    39  25  57 S5         N/A   WCI  35
* ESSEX        N/A       23  22  96 NW2        N/A
* LINCOLN      N/A       20  19  96 N/A        N/A
* LOOKOUT PASS N/A       36  29  76 S3         N/A
* POLSON       N/A       34  30  85 N/A        N/A
* RONAN APT    PTSUNNY   28  25  89 N/A        N/A
* SEELEY LAKE  N/A       16  14  92 N/A        N/A
* THOMP F APT  PTCLDY    38  23  55 NE3        N/A
$$

MTZ008-052>055-271600-
SOUTHWEST MONTANA
CITY           SKY/WX    TMP DP  RH WIND       PRES   REMARKS
BOZEMAN        PTCLDY    25  21  85 S3        30.04S
DILLON         CLOUDY    36  27  70 S10       30.06S WCI  29
* W YELLOWSTON PTCLDY    16  14  92 N/A        N/A
* THREE FORKS  PTCLDY    25  25 100 N/A        N/A
* BOULDER HILL N/A       37  21  52 SW11       N/A   WCI  29
* MONIDA PASS  N/A       31  23  72 SE7        N/A   WCI  24
* RAYNOLDS PAS N/A       28  14  56 S13        N/A   WCI  17
* WHITEHALL    N/A       31  27  85 W5G10      N/A   WCI  26
* WISE RIVER   N/A       22  20  92 N/A        N/A
$$

MTZ009>010-012-014-046-048-049-054-271600-
EAST SLOPES AND CENTRAL MONTANA
CITY           SKY/WX    TMP DP  RH WIND       PRES   REMARKS
CUT BANK       CLOUDY    46  25  44 W17       29.86R
GREAT FALLS    CLOUDY    46  28  50 SW13      29.90S
HELENA         PTCLDY    28  25  89 W3        30.02R
MALMSTROM AFB  CLOUDY    46  28  50 SW15      29.90S
* DEARBORN     N/A       47  28  48 S9         N/A
* EAST GLACIER N/A       42  22  45 W8         N/A
* MONARCH      N/A       45  18  34 S12G17     N/A
* PENDROY      N/A       44  21  40 W2         N/A
* ROGERS PASS  N/A       43  23  45 SE2G7      N/A
* SWEET GRASS  N/A       47  23  39 SW9        N/A
$$

MTZ011-013-016-021-035-040-045-047-050-051-271600-
NORTH CENTRAL MONTANA
CITY           SKY/WX    TMP DP  RH WIND       PRES   REMARKS
HAVRE          CLOUDY    41  30  65 SW13      29.84R
LEWISTOWN      CLOUDY    43  28  56 SW14      29.92F
* N BAR RANCH  SUNNY     48  19  32 W8        29.94R
* CHESTER      N/A       34  28  79 E1         N/A
* DENTON       N/A       45  25  45 S4         N/A
* GEYSER       N/A       51  19  28 NW10       N/A
* JUDITH GAP   N/A       52  26  36 W15G22     N/A
* LOMA         N/A       44  30  58 SW4        N/A
$$

MTZ017>020-022>027-061-062-271600-
NORTHEAST MONTANA
CITY           SKY/WX    TMP DP  RH WIND       PRES   REMARKS
GLASGOW        PTSUNNY   36  28  73 S5        29.84S WCI  32
GLENDIVE       SUNNY     32  28  85 S7        29.89R WCI  25
JORDAN         PTSUNNY   27  25  92 CALM      29.87S
SIDNEY         SUNNY     30  27  89 CALM      29.87R
WOLF POINT     PTCLDY    30  27  89 W8        29.86R WCI  22
* BEAVER HILL  N/A       39  30  70 S8         N/A   WCI  33
* CIRCLE       N/A       37  31  79 N/A        N/A
* LINDSAY DVD  N/A       47  29  50 W7         N/A
* NAVAJO       N/A       40  32  73 W15        N/A   WCI  32
* SACO         N/A       33  30  89 S10        N/A   WCI  25
$$

MTZ028>042-056>058-271600-
SOUTHCENTRAL AND SOUTHEAST MONTANA
CITY           SKY/WX    TMP DP  RH WIND       PRES   REMARKS
BAKER          SUNNY     30  27  89 CALM      29.92R
BILLINGS       PTSUNNY   46  27  48 SW16      29.94R
LIVINGSTON     PTCLDY    52  21  30 W17       29.99R
MILES CITY     PTCLDY    34  28  79 S10       29.91S WCI  26
* LAUREL APT   PTSUNNY   39  23  53 SW7        N/A   WCI  34
* ROUNDUP APT  PTSUNNY   46  25  44 SW6        N/A
* ALZADA       N/A       40  28  62 W2         N/A
* HYSHAM       N/A       50  24  36 W9         N/A
* LAME DEER    N/A       52  24  34 W9         N/A
* REED POINT   N/A       26  26 100 NW2        N/A
* ROSCOE HILL  N/A       50  10  20 N/A        N/A
$$

REGIONAL REPORTS...DAKOTAS
CITY           SKY/WX    TMP DP  RH WIND       PRES   REMARKS
WILLISTON      PTSUNNY   28  27  96 S3        29.84R
DICKINSON      SUNNY     37  30  76 W8        29.84R WCI  31
CROSBY         SUNNY     34  34 100 S6        29.81R WCI  29
WATFORD CITY   SUNNY     32  32 100 SW8       29.82S WCI  25
BISMARCK       SUNNY     30  28  92 SE7       29.91S WCI  23
GRAND FORKS    FOG       27  27 100 S7        30.05R VSB 3/4  WCI  19
FARGO          FOG       28  27  96 S10       30.06F VSB 3/4  WCI  19
BUFFALO SD     PTCLDY    41  28  60 W12       29.86R
RAPID CITY     PTCLDY    52  25  35 NW13      29.96R
$$

REGIONAL REPORTS...WYOMING/IDAHO/WASHINGTON
CITY           SKY/WX    TMP DP  RH WIND       PRES   REMARKS
GILLETTE       PTCLDY    48  27  44 SW16      30.00S
SHERIDAN       PTCLDY    36  25  64 S3        29.97S
CODY           PTCLDY    45  25  45 SW14      30.03S
YELLOWSTONE LA PTCLDY     3   0  87 CALM      30.24S
SALMON         CLOUDY   N/A N/A N/A CALM      30.17R VSB 1/2
MULLAN PASS    PTSUNNY   43  27  53 SW7       30.01S
SAND POINT     FOG      N/A N/A N/A CALM      30.02S VSB M1/4
SPOKANE        FOG       30  30 100 E5        29.98R VSB M1/4 WCI  25

$$




USA.gov is the U.S. government's official web portal to all federal, state and local government web resources and services.